| time (UTC) | temp F | wind direction | speed MPH | gust MPH | rain 1hr in | rain 24hr in | rain mn in | humidity % | barometer mb |
| 20260904123551 | 64 | 0 | 0.0 | 0.0 | 0.00 | 0.02 | 0.00 | 95 | 1010.6 |
| 20260904123101 | 63 | 0 | 0.0 | 0.0 | 0.00 | 0.02 | 0.00 | 95 | 1010.7 |
| 20260904122551 | 63 | 0 | 0.0 | 0.0 | 0.00 | 0.02 | 0.00 | 96 | 1010.6 |
| 20260904122052 | 63 | 0 | 0.0 | 0.0 | 0.00 | 0.02 | 0.00 | 96 | 1010.7 |
| 20260904121600 | 62 | 0 | 0.0 | 0.0 | 0.00 | 0.02 | 0.00 | 97 | 1010.7 |
| 20260904121051 | 62 | 0 | 0.0 | 0.0 | 0.00 | 0.02 | 0.00 | 97 | 1010.8 |
| 20260904120552 | 62 | 0 | 0.0 | 0.0 | 0.00 | 0.02 | 0.00 | 96 | 1010.7 |
| 20260904120103 | 62 | 0 | 0.0 | 0.0 | 0.00 | 0.02 | 0.00 | 97 | 1010.9 |
| 20260904115552 | 62 | 0 | 0.0 | 0.0 | 0.00 | 0.02 | 0.00 | 97 | 1010.7 |
| 20260904115052 | 61 | 0 | 0.0 | 0.0 | 0.00 | 0.02 | 0.00 | 97 | 1010.6 |
| 20260904114558 | 61 | 0 | 0.0 | 0.0 | 0.00 | 0.02 | 0.00 | 97 | 1010.7 |
| 20260904114051 | 61 | 0 | 0.0 | 0.0 | 0.00 | 0.02 | 0.00 | 96 | 1010.8 |
| 20260904113551 | 61 | 0 | 0.0 | 0.0 | 0.00 | 0.02 | 0.00 | 96 | 1010.7 |
| 20260904113057 | 61 | 0 | 0.0 | 0.0 | 0.00 | 0.02 | 0.00 | 96 | 1010.8 |
| 20260904112550 | 61 | 0 | 0.0 | 0.0 | 0.00 | 0.02 | 0.00 | 96 | 1010.6 |
| 20260904112051 | 61 | 0 | 0.0 | 0.0 | 0.00 | 0.02 | 0.00 | 96 | 1010.4 |
| 20260904111606 | 61 | 0 | 0.0 | 0.0 | 0.00 | 0.02 | 0.00 | 96 | 1010.2 |
| 20260904111054 | 61 | 0 | 0.0 | 0.0 | 0.00 | 0.02 | 0.00 | 96 | 1010.1 |
| 20260904110552 | 61 | 0 | 0.0 | 0.0 | 0.00 | 0.02 | 0.00 | 96 | 1010.2 |
| 20260904110101 | 61 | 0 | 0.0 | 0.0 | 0.00 | 0.02 | 0.00 | 96 | 1010.2 |
| 20260904105550 | 61 | 0 | 0.0 | 0.0 | 0.00 | 0.04 | 0.00 | 96 | 1010.3 |
| 20260904105051 | 61 | 0 | 0.0 | 0.0 | 0.00 | 0.04 | 0.00 | 96 | 1010.2 |
| 20260904104605 | 61 | 0 | 0.0 | 0.0 | 0.00 | 0.04 | 0.00 | 96 | 1010.2 |
| 20260904104052 | 62 | 0 | 0.0 | 0.0 | 0.00 | 0.04 | 0.00 | 96 | 1010.3 |
| 20260904103551 | 62 | 0 | 0.0 | 0.0 | 0.00 | 0.04 | 0.00 | 96 | 1010.1 |
| 20260904103109 | 62 | 0 | 0.0 | 0.0 | 0.00 | 0.04 | 0.00 | 96 | 1010.1 |
| 20260904102549 | 62 | 0 | 0.0 | 0.0 | 0.00 | 0.04 | 0.00 | 96 | 1010.2 |
| 20260904102052 | 62 | 0 | 0.0 | 0.0 | 0.00 | 0.04 | 0.00 | 96 | 1010.2 |
| 20260904101601 | 62 | 0 | 0.0 | 0.0 | 0.00 | 0.04 | 0.00 | 96 | 1010.3 |
| 20260904101051 | 62 | 0 | 0.0 | 0.0 | 0.00 | 0.04 | 0.00 | 96 | 1010.2 |
| 20260904100551 | 62 | 0 | 0.0 | 0.0 | 0.00 | 0.04 | 0.00 | 96 | 1010.2 |
| 20260904100106 | 62 | 0 | 0.0 | 0.0 | 0.00 | 0.04 | 0.00 | 96 | 1010.0 |
| 20260904095551 | 62 | 0 | 0.0 | 0.0 | 0.00 | 0.06 | 0.00 | 96 | 1010.0 |
| 20260904095050 | 62 | 0 | 0.0 | 0.0 | 0.00 | 0.06 | 0.00 | 96 | 1010.0 |
| 20260904094603 | 62 | 0 | 0.0 | 0.0 | 0.00 | 0.06 | 0.00 | 96 | 1010.1 |
| 20260904094051 | 62 | 0 | 0.0 | 0.0 | 0.00 | 0.06 | 0.00 | 96 | 1010.0 |
| 20260904093552 | 62 | 0 | 0.0 | 0.0 | 0.00 | 0.06 | 0.00 | 96 | 1010.1 |
| 20260904093106 | 62 | 0 | 0.0 | 0.0 | 0.00 | 0.06 | 0.00 | 96 | 1010.1 |
| 20260904092551 | 62 | 0 | 0.0 | 0.0 | 0.00 | 0.06 | 0.00 | 96 | 1010.0 |
| 20260904092051 | 62 | 0 | 0.0 | 0.0 | 0.00 | 0.06 | 0.00 | 96 | 1009.9 |
| 20260904091609 | 62 | 0 | 0.0 | 0.0 | 0.00 | 0.06 | 0.00 | 96 | 1010.0 |
| 20260904091050 | 62 | 0 | 0.0 | 0.0 | 0.00 | 0.06 | 0.00 | 96 | 1010.0 |
| 20260904090551 | 62 | 0 | 0.0 | 0.0 | 0.00 | 0.06 | 0.00 | 96 | 1009.9 |
| 20260904090104 | 62 | 0 | 0.0 | 0.0 | 0.00 | 0.06 | 0.00 | 96 | 1010.1 |
| 20260904085551 | 62 | 0 | 0.0 | 0.0 | 0.00 | 0.08 | 0.00 | 96 | 1010.1 |
| 20260904085053 | 62 | 0 | 0.0 | 0.0 | 0.00 | 0.08 | 0.00 | 96 | 1010.1 |
| 20260904084608 | 62 | 0 | 0.0 | 0.0 | 0.00 | 0.08 | 0.00 | 96 | 1010.1 |
| 20260904084051 | 62 | 0 | 0.0 | 0.0 | 0.00 | 0.08 | 0.00 | 96 | 1010.3 |
| 20260904083552 | 63 | 0 | 0.0 | 0.0 | 0.00 | 0.08 | 0.00 | 96 | 1010.1 |
| 20260904083112 | 63 | 0 | 0.0 | 0.0 | 0.00 | 0.08 | 0.00 | 96 | 1010.3 |
| 20260904082551 | 63 | 0 | 0.0 | 0.0 | 0.00 | 0.08 | 0.00 | 96 | 1010.2 |
| 20260904082052 | 63 | 0 | 0.0 | 1.0 | 0.00 | 0.08 | 0.00 | 96 | 1010.2 |
| 20260904081603 | 63 | 0 | 0.0 | 1.0 | 0.00 | 0.08 | 0.00 | 96 | 1010.3 |
| 20260904081052 | 63 | 0 | 0.0 | 0.0 | 0.00 | 0.08 | 0.00 | 96 | 1010.4 |
| 20260904080551 | 63 | 0 | 0.0 | 0.0 | 0.00 | 0.08 | 0.00 | 96 | 1010.2 |
| 20260904075551 | 63 | 0 | 0.0 | 0.0 | 0.00 | 0.13 | 0.00 | 95 | 1010.1 |
| 20260904075053 | 63 | 0 | 0.0 | 0.0 | 0.00 | 0.13 | 0.00 | 95 | 1010.2 |
| 20260904074610 | 63 | 0 | 0.0 | 0.0 | 0.00 | 0.13 | 0.00 | 96 | 1010.0 |
| 20260904074050 | 63 | 0 | 0.0 | 0.0 | 0.00 | 0.13 | 0.00 | 96 | 1010.0 |
| 20260904073550 | 64 | 0 | 0.0 | 0.0 | 0.00 | 0.13 | 0.00 | 95 | 1010.1 |
| 20260904073101 | 64 | 0 | 0.0 | 0.0 | 0.00 | 0.13 | 0.00 | 95 | 1010.3 |
| 20260904072554 | 64 | 0 | 0.0 | 0.0 | 0.00 | 0.13 | 0.00 | 95 | 1010.3 |
| 20260904072051 | 64 | 0 | 0.0 | 0.0 | 0.00 | 0.13 | 0.00 | 95 | 1010.3 |
| 20260904071558 | 64 | 0 | 0.0 | 0.0 | 0.00 | 0.13 | 0.00 | 95 | 1010.4 |
| 20260904071051 | 64 | 0 | 0.0 | 0.0 | 0.00 | 0.13 | 0.00 | 96 | 1010.4 |
| 20260904070551 | 64 | 0 | 0.0 | 0.0 | 0.00 | 0.13 | 0.00 | 96 | 1010.1 |
| 20260904070126 | 64 | 0 | 0.0 | 4.0 | 0.00 | 0.13 | 0.00 | 96 | 1010.3 |
| 20260904065552 | 64 | 0 | 0.0 | 4.0 | 0.00 | 0.14 | 0.00 | 96 | 1010.4 |
| 20260904065050 | 64 | 0 | 0.0 | 0.0 | 0.00 | 0.14 | 0.00 | 95 | 1010.3 |
| 20260904064556 | 64 | 0 | 0.0 | 0.0 | 0.00 | 0.14 | 0.00 | 95 | 1010.4 |
| 20260904064050 | 64 | 0 | 0.0 | 0.0 | 0.00 | 0.14 | 0.00 | 95 | 1010.4 |
| 20260904063550 | 64 | 0 | 0.0 | 0.0 | 0.00 | 0.14 | 0.00 | 95 | 1010.4 |
| 20260904063105 | 64 | 0 | 0.0 | 0.0 | 0.00 | 0.14 | 0.00 | 95 | 1010.4 |
| 20260904062550 | 64 | 0 | 0.0 | 0.0 | 0.00 | 0.14 | 0.00 | 95 | 1010.4 |
| 20260904062050 | 64 | 0 | 0.0 | 0.0 | 0.00 | 0.14 | 0.00 | 95 | 1010.6 |
| 20260904061600 | 64 | 0 | 0.0 | 0.0 | 0.00 | 0.14 | 0.00 | 95 | 1010.6 |
| 20260904061051 | 64 | 0 | 0.0 | 0.0 | 0.00 | 0.14 | 0.00 | 95 | 1010.4 |
| 20260904060551 | 64 | 0 | 0.0 | 0.0 | 0.00 | 0.14 | 0.00 | 95 | 1010.9 |
| 20260904060107 | 64 | 0 | 0.0 | 0.0 | 0.00 | 0.14 | 0.00 | 95 | 1010.9 |
| 20260904055550 | 64 | 0 | 0.0 | 0.0 | 0.00 | 0.14 | 0.00 | 95 | 1011.0 |
| 20260904055050 | 64 | 0 | 0.0 | 0.0 | 0.00 | 0.14 | 0.00 | 95 | 1011.1 |
| 20260904054602 | 64 | 0 | 0.0 | 0.0 | 0.00 | 0.14 | 0.00 | 95 | 1011.0 |
| 20260904054050 | 64 | 0 | 0.0 | 0.0 | 0.00 | 0.14 | 0.00 | 95 | 1011.3 |
| 20260904053551 | 64 | 0 | 0.0 | 0.0 | 0.00 | 0.14 | 0.00 | 95 | 1011.3 |
| 20260904053059 | 64 | 0 | 0.0 | 0.0 | 0.00 | 0.14 | 0.00 | 95 | 1011.2 |
| 20260904052550 | 64 | 0 | 0.0 | 0.0 | 0.00 | 0.14 | 0.00 | 95 | 1011.4 |
| 20260904052050 | 64 | 0 | 0.0 | 0.0 | 0.00 | 0.14 | 0.00 | 95 | 1011.3 |
| 20260904051558 | 64 | 0 | 0.0 | 0.0 | 0.00 | 0.14 | 0.00 | 95 | 1011.3 |
| 20260904051050 | 64 | 0 | 0.0 | 0.0 | 0.00 | 0.14 | 0.00 | 95 | 1011.2 |
| 20260904050551 | 64 | 0 | 0.0 | 0.0 | 0.00 | 0.14 | 0.00 | 95 | 1011.4 |
| 20260904050100 | 64 | 0 | 0.0 | 0.0 | 0.00 | 0.14 | 0.00 | 95 | 1011.4 |
| 20260904045551 | 64 | 0 | 0.0 | 0.0 | 0.00 | 0.14 | 0.00 | 95 | 1011.4 |
| 20260904045051 | 64 | 0 | 0.0 | 0.0 | 0.00 | 0.14 | 0.00 | 95 | 1011.6 |
| 20260904044606 | 64 | 0 | 0.0 | 0.0 | 0.00 | 0.14 | 0.00 | 95 | 1011.7 |
| 20260904044051 | 64 | 0 | 0.0 | 0.0 | 0.00 | 0.14 | 0.00 | 95 | 1011.6 |
| 20260904043554 | 64 | 0 | 0.0 | 0.0 | 0.00 | 0.14 | 0.00 | 95 | 1011.7 |
| 20260904043102 | 64 | 0 | 0.0 | 0.0 | 0.00 | 0.14 | 0.00 | 95 | 1011.7 |
| 20260904042555 | 64 | 0 | 0.0 | 0.0 | 0.00 | 0.14 | 0.00 | 95 | 1011.7 |
| 20260904042052 | 64 | 0 | 0.0 | 0.0 | 0.00 | 0.14 | 0.00 | 95 | 1011.7 |
| 20260904041612 | 64 | 0 | 0.0 | 0.0 | 0.00 | 0.14 | 0.00 | 95 | 1011.8 |
| 20260904041051 | 64 | 0 | 0.0 | 0.0 | 0.00 | 0.14 | 0.00 | 95 | 1011.8 |
| 20260904040552 | 64 | 0 | 0.0 | 0.0 | 0.00 | 0.14 | 0.00 | 95 | 1011.8 |
| 20260904040111 | 64 | 0 | 0.0 | 0.0 | 0.00 | 0.14 | 0.00 | 95 | 1011.7 |
| 20260904035550 | 64 | 0 | 0.0 | 0.0 | 0.00 | 0.14 | 0.14 | 95 | 1011.7 |
| 20260904035049 | 65 | 0 | 0.0 | 0.0 | 0.00 | 0.14 | 0.14 | 95 | 1011.9 |
| 20260904034611 | 65 | 0 | 0.0 | 0.0 | 0.00 | 0.14 | 0.14 | 95 | 1011.9 |
| 20260904034050 | 65 | 0 | 0.0 | 0.0 | 0.00 | 0.14 | 0.14 | 95 | 1011.9 |
| 20260904033552 | 65 | 0 | 0.0 | 0.0 | 0.00 | 0.14 | 0.14 | 95 | 1012.0 |
| 20260904033103 | 65 | 0 | 0.0 | 0.0 | 0.00 | 0.14 | 0.14 | 95 | 1011.9 |
| 20260904032555 | 65 | 0 | 0.0 | 0.0 | 0.00 | 0.14 | 0.14 | 95 | 1011.9 |
| 20260904032050 | 65 | 0 | 0.0 | 0.0 | 0.00 | 0.14 | 0.14 | 95 | 1012.0 |
| 20260904031603 | 65 | 0 | 0.0 | 0.0 | 0.00 | 0.14 | 0.14 | 95 | 1012.0 |
| 20260904031050 | 65 | 0 | 0.0 | 0.0 | 0.00 | 0.14 | 0.14 | 94 | 1012.1 |
| 20260904030551 | 65 | 0 | 0.0 | 0.0 | 0.00 | 0.14 | 0.14 | 94 | 1012.2 |
| 20260904030057 | 65 | 0 | 0.0 | 0.0 | 0.00 | 0.14 | 0.14 | 94 | 1012.1 |
| 20260904025551 | 65 | 0 | 0.0 | 0.0 | 0.00 | 0.14 | 0.14 | 94 | 1012.1 |
| 20260904025053 | 65 | 0 | 0.0 | 0.0 | 0.00 | 0.14 | 0.14 | 94 | 1012.2 |
| 20260904024556 | 65 | 0 | 0.0 | 0.0 | 0.00 | 0.14 | 0.14 | 94 | 1012.1 |
| 20260904024051 | 65 | 0 | 0.0 | 0.0 | 0.00 | 0.14 | 0.14 | 94 | 1012.0 |
| 20260904023551 | 65 | 0 | 0.0 | 0.0 | 0.00 | 0.14 | 0.14 | 94 | 1012.1 |
| 20260904023055 | 65 | 0 | 0.0 | 0.0 | 0.00 | 0.14 | 0.14 | 94 | 1012.2 |
| 20260904022550 | 65 | 0 | 0.0 | 0.0 | 0.00 | 0.14 | 0.14 | 94 | 1012.2 |
| 20260904022050 | 65 | 0 | 0.0 | 0.0 | 0.00 | 0.14 | 0.14 | 94 | 1012.2 |
| 20260904021607 | 65 | 0 | 0.0 | 0.0 | 0.00 | 0.14 | 0.14 | 94 | 1012.2 |
| 20260904021053 | 65 | 0 | 0.0 | 0.0 | 0.00 | 0.14 | 0.14 | 94 | 1012.3 |
| 20260904020551 | 65 | 0 | 0.0 | 0.0 | 0.00 | 0.14 | 0.14 | 94 | 1012.3 |
| 20260904020056 | 65 | 0 | 0.0 | 0.0 | 0.00 | 0.14 | 0.14 | 94 | 1012.3 |
| 20260904015552 | 65 | 0 | 0.0 | 0.0 | 0.00 | 0.14 | 0.14 | 94 | 1012.4 |
| 20260904015051 | 65 | 0 | 0.0 | 0.0 | 0.00 | 0.14 | 0.14 | 94 | 1012.3 |
| 20260904014636 | 65 | 0 | 0.0 | 0.0 | 0.00 | 0.14 | 0.14 | 94 | 1012.3 |
| 20260904014051 | 65 | 0 | 0.0 | 0.0 | 0.00 | 0.14 | 0.14 | 94 | 1012.3 |
| 20260904013554 | 65 | 0 | 0.0 | 0.0 | 0.00 | 0.14 | 0.14 | 94 | 1012.4 |
| 20260904013101 | 65 | 0 | 0.0 | 0.0 | 0.00 | 0.14 | 0.14 | 94 | 1012.5 |
| 20260904012550 | 65 | 0 | 0.0 | 0.0 | 0.00 | 0.14 | 0.14 | 94 | 1012.3 |
| 20260904012052 | 65 | 0 | 0.0 | 0.0 | 0.00 | 0.14 | 0.14 | 94 | 1012.2 |
| 20260904011628 | 65 | 0 | 0.0 | 0.0 | 0.00 | 0.14 | 0.14 | 94 | 1012.3 |
| 20260904011055 | 65 | 0 | 0.0 | 0.0 | 0.00 | 0.14 | 0.14 | 94 | 1012.2 |
| 20260904010551 | 65 | 0 | 0.0 | 0.0 | 0.00 | 0.14 | 0.14 | 94 | 1012.4 |
| 20260904010107 | 65 | 0 | 0.0 | 0.0 | 0.00 | 0.14 | 0.14 | 94 | 1012.4 |
| 20260904005551 | 65 | 0 | 0.0 | 0.0 | 0.00 | 0.14 | 0.14 | 94 | 1012.2 |
| 20260904005051 | 65 | 0 | 0.0 | 0.0 | 0.00 | 0.14 | 0.14 | 93 | 1012.3 |
| 20260904004559 | 65 | 0 | 0.0 | 0.0 | 0.00 | 0.14 | 0.14 | 93 | 1012.3 |
| 20260904004051 | 65 | 0 | 0.0 | 0.0 | 0.00 | 0.14 | 0.14 | 93 | 1012.0 |
| 20260904003550 | 65 | 0 | 0.0 | 0.0 | 0.00 | 0.14 | 0.14 | 93 | 1012.0 |
| 20260904003102 | 65 | 0 | 0.0 | 0.0 | 0.00 | 0.14 | 0.14 | 93 | 1011.9 |
| 20260904002551 | 65 | 0 | 0.0 | 0.0 | 0.00 | 0.14 | 0.14 | 93 | 1012.0 |
| 20260904002051 | 65 | 0 | 0.0 | 0.0 | 0.00 | 0.14 | 0.14 | 93 | 1012.2 |
| 20260904001600 | 65 | 0 | 0.0 | 0.0 | 0.00 | 0.14 | 0.14 | 93 | 1011.9 |
| 20260904001052 | 65 | 0 | 0.0 | 0.0 | 0.00 | 0.14 | 0.14 | 93 | 1011.8 |
| 20260904000550 | 65 | 0 | 0.0 | 0.0 | 0.00 | 0.14 | 0.14 | 93 | 1011.7 |
| 20260903235551 | 66 | 0 | 0.0 | 0.0 | 0.00 | 0.14 | 0.14 | 92 | 1011.6 |
| 20260903235047 | 66 | 0 | 0.0 | 0.0 | 0.00 | 0.14 | 0.14 | 92 | 1011.5 |
| 20260903234600 | 66 | 0 | 0.0 | 0.0 | 0.00 | 0.14 | 0.14 | 92 | 1011.6 |
| 20260903234052 | 66 | 0 | 0.0 | 0.0 | 0.00 | 0.14 | 0.14 | 92 | 1011.7 |
| 20260903233551 | 66 | 0 | 0.0 | 0.0 | 0.00 | 0.14 | 0.14 | 92 | 1011.4 |
| 20260903233111 | 66 | 0 | 0.0 | 0.0 | 0.00 | 0.14 | 0.14 | 92 | 1011.4 |
| 20260903232550 | 66 | 0 | 0.0 | 0.0 | 0.00 | 0.14 | 0.14 | 91 | 1011.5 |
| 20260903232050 | 66 | 0 | 0.0 | 0.0 | 0.00 | 0.14 | 0.14 | 91 | 1011.2 |
| 20260903231556 | 66 | 0 | 0.0 | 0.0 | 0.00 | 0.14 | 0.14 | 91 | 1011.6 |
| 20260903231049 | 66 | 0 | 0.0 | 0.0 | 0.00 | 0.14 | 0.14 | 91 | 1011.8 |
| 20260903230551 | 66 | 0 | 0.0 | 0.0 | 0.00 | 0.14 | 0.14 | 91 | 1011.9 |
| 20260903230056 | 66 | 0 | 0.0 | 0.0 | 0.00 | 0.14 | 0.14 | 90 | 1011.5 |
| 20260903225700 | 67 | 0 | 0.0 | 0.0 | 0.00 | 0.14 | 0.14 | 90 | 1011.5 |
| 20260903225557 | 67 | 0 | 0.0 | 0.0 | 0.00 | 0.14 | 0.14 | 90 | 1011.5 |
| 20260903225051 | 67 | 0 | 0.0 | 0.0 | 0.00 | 0.14 | 0.14 | 90 | 1011.8 |
| 20260903224559 | 67 | 0 | 0.0 | 0.0 | 0.00 | 0.14 | 0.14 | 89 | 1012.0 |
| 20260903224052 | 67 | 0 | 0.0 | 0.0 | 0.00 | 0.14 | 0.14 | 89 | 1011.9 |
| 20260903223551 | 67 | 0 | 0.0 | 0.0 | 0.00 | 0.14 | 0.14 | 88 | 1012.1 |
| 20260903223115 | 67 | 0 | 0.0 | 0.0 | 0.00 | 0.14 | 0.14 | 88 | 1012.2 |
| 20260903222552 | 68 | 0 | 0.0 | 0.0 | 0.00 | 0.14 | 0.14 | 88 | 1012.0 |
| 20260903222053 | 68 | 0 | 0.0 | 0.0 | 0.00 | 0.14 | 0.14 | 87 | 1011.9 |
| 20260903221607 | 68 | 0 | 0.0 | 0.0 | 0.00 | 0.14 | 0.14 | 87 | 1011.7 |
| 20260903221051 | 68 | 0 | 0.0 | 0.0 | 0.00 | 0.14 | 0.14 | 86 | 1011.7 |
| 20260903220551 | 68 | 0 | 0.0 | 0.0 | 0.00 | 0.14 | 0.14 | 86 | 1012.1 |
| 20260903220127 | 68 | 0 | 0.0 | 0.0 | 0.00 | 0.14 | 0.14 | 86 | 1012.0 |
| 20260903215552 | 68 | 0 | 0.0 | 0.0 | 0.00 | 0.14 | 0.14 | 86 | 1011.9 |
| 20260903215051 | 68 | 0 | 0.0 | 0.0 | 0.00 | 0.14 | 0.14 | 86 | 1012.0 |
| 20260903214601 | 68 | 0 | 0.0 | 0.0 | 0.00 | 0.14 | 0.14 | 86 | 1012.2 |
| 20260903214052 | 68 | 0 | 0.0 | 0.0 | 0.00 | 0.14 | 0.14 | 86 | 1012.1 |
| 20260903213551 | 68 | 0 | 0.0 | 0.0 | 0.00 | 0.14 | 0.14 | 86 | 1012.1 |
| 20260903213054 | 68 | 0 | 0.0 | 0.0 | 0.00 | 0.14 | 0.14 | 86 | 1012.2 |
| 20260903212552 | 68 | 0 | 0.0 | 0.0 | 0.00 | 0.14 | 0.14 | 85 | 1012.0 |
| 20260903212052 | 68 | 0 | 0.0 | 0.0 | 0.00 | 0.14 | 0.14 | 85 | 1012.0 |
| 20260903211605 | 68 | 0 | 0.0 | 0.0 | 0.00 | 0.14 | 0.14 | 85 | 1012.1 |
| 20260903211053 | 68 | 0 | 0.0 | 0.0 | 0.00 | 0.14 | 0.14 | 85 | 1012.1 |
| 20260903210552 | 68 | 0 | 0.0 | 0.0 | 0.00 | 0.14 | 0.14 | 85 | 1012.2 |
| 20260903210112 | 69 | 0 | 0.0 | 0.0 | 0.00 | 0.14 | 0.14 | 85 | 1011.9 |
| 20260903205551 | 69 | 0 | 0.0 | 0.0 | 0.00 | 0.15 | 0.14 | 85 | 1012.1 |
| 20260903205051 | 69 | 0 | 0.0 | 0.0 | 0.00 | 0.15 | 0.14 | 85 | 1012.0 |
| 20260903204556 | 69 | 0 | 0.0 | 0.0 | 0.00 | 0.15 | 0.14 | 85 | 1012.3 |
| 20260903204051 | 69 | 0 | 0.0 | 0.0 | 0.00 | 0.15 | 0.14 | 85 | 1012.1 |
| 20260903203552 | 69 | 0 | 0.0 | 0.0 | 0.00 | 0.15 | 0.14 | 84 | 1012.2 |
| 20260903203106 | 69 | 0 | 0.0 | 0.0 | 0.00 | 0.15 | 0.14 | 84 | 1012.2 |
| 20260903202552 | 69 | 0 | 0.0 | 0.0 | 0.00 | 0.15 | 0.14 | 86 | 1012.3 |
| 20260903202054 | 68 | 0 | 0.0 | 0.0 | 0.00 | 0.15 | 0.14 | 86 | 1012.3 |
| 20260903201603 | 68 | 0 | 0.0 | 0.0 | 0.00 | 0.15 | 0.14 | 86 | 1012.3 |
| 20260903201051 | 68 | 0 | 0.0 | 0.0 | 0.00 | 0.15 | 0.14 | 85 | 1012.2 |
| 20260903200551 | 68 | 0 | 0.0 | 0.0 | 0.00 | 0.15 | 0.14 | 85 | 1012.3 |
| 20260903200111 | 68 | 0 | 0.0 | 0.0 | 0.00 | 0.15 | 0.14 | 85 | 1012.3 |
| 20260903195646 | 68 | 0 | 0.0 | 0.0 | 0.00 | 0.15 | 0.14 | 86 | 1012.4 |
| 20260903195559 | 68 | 0 | 0.0 | 0.0 | 0.00 | 0.15 | 0.14 | 86 | 1012.4 |
| 20260903195051 | 68 | 0 | 0.0 | 0.0 | 0.00 | 0.15 | 0.14 | 86 | 1012.4 |
| 20260903194559 | 68 | 0 | 0.0 | 0.0 | 0.00 | 0.15 | 0.14 | 85 | 1012.3 |
| 20260903194051 | 68 | 0 | 0.0 | 0.0 | 0.00 | 0.15 | 0.14 | 86 | 1012.5 |
| 20260903193552 | 68 | 0 | 0.0 | 0.0 | 0.00 | 0.15 | 0.14 | 86 | 1012.6 |
| 20260903193101 | 67 | 0 | 0.0 | 0.0 | 0.00 | 0.15 | 0.14 | 85 | 1012.8 |
| 20260903192552 | 67 | 0 | 0.0 | 0.0 | 0.00 | 0.15 | 0.14 | 86 | 1012.6 |
| 20260903192051 | 67 | 0 | 0.0 | 0.0 | 0.00 | 0.15 | 0.14 | 87 | 1012.9 |
| 20260903191559 | 67 | 0 | 0.0 | 0.0 | 0.00 | 0.15 | 0.14 | 87 | 1012.6 |
| 20260903191052 | 67 | 0 | 0.0 | 0.0 | 0.00 | 0.15 | 0.14 | 87 | 1012.6 |
| 20260903190555 | 66 | 0 | 0.0 | 0.0 | 0.00 | 0.15 | 0.14 | 86 | 1012.8 |
| 20260903185551 | 66 | 0 | 0.0 | 0.0 | 0.00 | 0.15 | 0.14 | 87 | 1013.1 |
| 20260903185051 | 66 | 0 | 0.0 | 0.0 | 0.00 | 0.15 | 0.14 | 88 | 1013.1 |
| 20260903184600 | 66 | 0 | 0.0 | 0.0 | 0.00 | 0.15 | 0.14 | 88 | 1013.1 |
| 20260903184051 | 65 | 0 | 0.0 | 0.0 | 0.00 | 0.15 | 0.14 | 88 | 1013.2 |
| 20260903183552 | 65 | 0 | 0.0 | 0.0 | 0.00 | 0.15 | 0.14 | 88 | 1013.2 |
| 20260903183059 | 65 | 0 | 0.0 | 0.0 | 0.00 | 0.15 | 0.14 | 89 | 1013.3 |
| 20260903182552 | 65 | 0 | 0.0 | 0.0 | 0.00 | 0.15 | 0.14 | 89 | 1013.4 |
| 20260903182051 | 65 | 0 | 0.0 | 0.0 | 0.00 | 0.15 | 0.14 | 89 | 1013.2 |
| 20260903181559 | 65 | 0 | 0.0 | 0.0 | 0.00 | 0.15 | 0.14 | 89 | 1013.3 |
| 20260903181051 | 65 | 0 | 0.0 | 0.0 | 0.00 | 0.15 | 0.14 | 90 | 1013.2 |
| 20260903180553 | 64 | 0 | 0.0 | 0.0 | 0.00 | 0.15 | 0.14 | 89 | 1013.3 |
| 20260903175552 | 65 | 0 | 0.0 | 0.0 | 0.00 | 0.15 | 0.14 | 90 | 1013.5 |
| 20260903175052 | 64 | 0 | 0.0 | 0.0 | 0.00 | 0.15 | 0.14 | 89 | 1013.5 |
| 20260903174557 | 64 | 0 | 0.0 | 0.0 | 0.00 | 0.15 | 0.14 | 90 | 1013.4 |
| 20260903174050 | 64 | 0 | 0.0 | 0.0 | 0.00 | 0.15 | 0.14 | 90 | 1013.3 |
| 20260903173554 | 64 | 0 | 0.0 | 0.0 | 0.00 | 0.15 | 0.14 | 89 | 1013.5 |
| 20260903173103 | 64 | 0 | 0.0 | 0.0 | 0.00 | 0.15 | 0.14 | 90 | 1013.7 |
| 20260903172552 | 64 | 0 | 0.0 | 0.0 | 0.00 | 0.15 | 0.14 | 90 | 1013.6 |
| 20260903172052 | 64 | 0 | 0.0 | 0.0 | 0.00 | 0.15 | 0.14 | 91 | 1013.6 |
| 20260903171557 | 64 | 0 | 0.0 | 0.0 | 0.00 | 0.15 | 0.14 | 91 | 1013.4 |
| 20260903171051 | 63 | 0 | 0.0 | 0.0 | 0.00 | 0.15 | 0.14 | 91 | 1013.5 |
| 20260903170649 | 63 | 0 | 0.0 | 0.0 | 0.00 | 0.15 | 0.14 | 91 | 1013.5 |
| 20260903170115 | 63 | 0 | 0.0 | 0.0 | 0.00 | 0.15 | 0.14 | 92 | 1013.7 |
| 20260903165552 | 63 | 0 | 0.0 | 1.0 | 0.00 | 0.15 | 0.14 | 92 | 1013.8 |
| 20260903165055 | 63 | 0 | 0.0 | 1.0 | 0.00 | 0.15 | 0.14 | 93 | 1013.5 |
| 20260903164602 | 63 | 0 | 0.0 | 0.0 | 0.00 | 0.15 | 0.14 | 94 | 1013.6 |
| 20260903164051 | 63 | 0 | 0.0 | 0.0 | 0.00 | 0.15 | 0.14 | 94 | 1013.6 |
| 20260903163551 | 63 | 0 | 0.0 | 0.0 | 0.00 | 0.15 | 0.14 | 95 | 1013.7 |
| 20260903163106 | 62 | 0 | 0.0 | 0.0 | 0.00 | 0.15 | 0.14 | 95 | 1013.7 |
| 20260903162552 | 62 | 0 | 0.0 | 0.0 | 0.00 | 0.15 | 0.14 | 95 | 1013.8 |
| 20260903162052 | 62 | 0 | 0.0 | 0.0 | 0.00 | 0.15 | 0.14 | 95 | 1013.6 |
| 20260903161604 | 61 | 0 | 0.0 | 0.0 | 0.00 | 0.15 | 0.14 | 95 | 1013.8 |
| 20260903161051 | 61 | 0 | 0.0 | 0.0 | 0.00 | 0.15 | 0.14 | 95 | 1013.7 |
| 20260903160551 | 61 | 0 | 0.0 | 0.0 | 0.00 | 0.15 | 0.14 | 95 | 1014.0 |
| 20260903160101 | 61 | 0 | 0.0 | 0.0 | 0.00 | 0.15 | 0.14 | 95 | 1014.1 |
| 20260903155553 | 61 | 0 | 0.0 | 0.0 | 0.00 | 0.15 | 0.14 | 96 | 1014.2 |
| 20260903155051 | 61 | 0 | 0.0 | 0.0 | 0.00 | 0.15 | 0.14 | 96 | 1014.3 |
| 20260903154603 | 61 | 0 | 0.0 | 0.0 | 0.00 | 0.15 | 0.14 | 96 | 1014.3 |
| 20260903154051 | 61 | 0 | 0.0 | 0.0 | 0.00 | 0.15 | 0.14 | 96 | 1014.5 |
| 20260903153551 | 61 | 0 | 0.0 | 0.0 | 0.00 | 0.15 | 0.14 | 96 | 1014.6 |
| 20260903153103 | 60 | 0 | 0.0 | 0.0 | 0.00 | 0.15 | 0.14 | 96 | 1014.7 |
| 20260903152552 | 60 | 0 | 0.0 | 0.0 | 0.00 | 0.15 | 0.14 | 96 | 1014.7 |
| 20260903152051 | 60 | 0 | 0.0 | 1.0 | 0.00 | 0.15 | 0.14 | 96 | 1014.7 |
| 20260903151603 | 60 | 0 | 0.0 | 1.0 | 0.00 | 0.15 | 0.14 | 96 | 1014.9 |
| 20260903151054 | 60 | 0 | 0.0 | 2.0 | 0.00 | 0.15 | 0.14 | 96 | 1015.1 |
| 20260903150551 | 60 | 0 | 0.0 | 2.0 | 0.00 | 0.15 | 0.14 | 96 | 1015.0 |
| 20260903150111 | 60 | 0 | 0.0 | 0.0 | 0.00 | 0.15 | 0.14 | 96 | 1015.0 |
| 20260903145554 | 60 | 0 | 0.0 | 1.0 | 0.00 | 0.15 | 0.14 | 96 | 1014.9 |
| 20260903145051 | 60 | 0 | 0.0 | 1.0 | 0.00 | 0.15 | 0.14 | 96 | 1015.0 |
| 20260903144615 | 60 | 0 | 0.0 | 1.0 | 0.00 | 0.15 | 0.14 | 96 | 1015.2 |
| 20260903144052 | 60 | 0 | 0.0 | 0.0 | 0.00 | 0.15 | 0.14 | 96 | 1015.3 |
| 20260903143555 | 60 | 0 | 0.0 | 0.0 | 0.00 | 0.15 | 0.14 | 96 | 1015.2 |
| 20260903143100 | 60 | 0 | 0.0 | 0.0 | 0.00 | 0.15 | 0.14 | 96 | 1015.1 |
| 20260903142555 | 60 | 0 | 0.0 | 0.0 | 0.00 | 0.15 | 0.14 | 96 | 1015.3 |
| 20260903142051 | 59 | 0 | 0.0 | 0.0 | 0.00 | 0.15 | 0.14 | 96 | 1015.1 |
| 20260903141611 | 60 | 0 | 0.0 | 0.0 | 0.00 | 0.15 | 0.14 | 96 | 1015.2 |
| 20260903141052 | 59 | 0 | 0.0 | 0.0 | 0.00 | 0.15 | 0.14 | 96 | 1015.2 |
| 20260903140552 | 59 | 0 | 0.0 | 0.0 | 0.00 | 0.15 | 0.14 | 96 | 1015.1 |
| 20260903140106 | 59 | 0 | 0.0 | 0.0 | 0.00 | 0.15 | 0.14 | 96 | 1015.2 |
| 20260903135554 | 59 | 0 | 0.0 | 1.0 | 0.00 | 0.15 | 0.14 | 96 | 1015.2 |
| 20260903135052 | 59 | 0 | 0.0 | 1.0 | 0.00 | 0.15 | 0.14 | 96 | 1015.1 |
| 20260903134628 | 59 | 0 | 0.0 | 0.0 | 0.01 | 0.15 | 0.14 | 96 | 1015.1 |
| 20260903134054 | 59 | 0 | 0.0 | 0.0 | 0.01 | 0.15 | 0.14 | 96 | 1015.2 |
| 20260903133553 | 59 | 0 | 0.0 | 0.0 | 0.01 | 0.15 | 0.14 | 96 | 1015.1 |
| 20260903133112 | 59 | 0 | 0.0 | 0.0 | 0.01 | 0.15 | 0.14 | 96 | 1015.1 |
| 20260903132552 | 59 | 0 | 0.0 | 0.0 | 0.01 | 0.15 | 0.14 | 96 | 1015.0 |
| 20260903132055 | 59 | 0 | 0.0 | 0.0 | 0.01 | 0.15 | 0.14 | 96 | 1015.2 |
| 20260903131605 | 58 | 0 | 0.0 | 0.0 | 0.01 | 0.15 | 0.14 | 96 | 1015.1 |
| 20260903131051 | 58 | 0 | 0.0 | 0.0 | 0.01 | 0.15 | 0.14 | 96 | 1015.1 |
| 20260903130552 | 58 | 0 | 0.0 | 0.0 | 0.02 | 0.15 | 0.14 | 96 | 1015.2 |
| 20260903130104 | 58 | 0 | 0.0 | 0.0 | 0.02 | 0.15 | 0.14 | 96 | 1015.4 |
| 20260903125556 | 58 | 0 | 0.0 | 0.0 | 0.02 | 0.15 | 0.14 | 96 | 1015.4 |
| 20260903125051 | 58 | 0 | 0.0 | 0.0 | 0.02 | 0.15 | 0.14 | 96 | 1015.5 |
| 20260903124605 | 58 | 0 | 0.0 | 0.0 | 0.01 | 0.14 | 0.13 | 96 | 1015.5 |
| 20260903124054 | 58 | 0 | 0.0 | 0.0 | 0.01 | 0.14 | 0.13 | 96 | 1015.6 |